Home   Weather   San Salvador   Past weeks

Flag for El Salvador Past Weather in San Salvador, El Salvador — Yesterday and Last 2 Weeks

Now
75 °F

Sunny.


Feels Like: 75 °F
Forecast: 69 / 85 °F
Wind: 7 mph from North

Location: San Salvador / Ilopango

Current Time: Jul 24, 2017 at 9:03:45 am

Latest Report: Jul 24, 2017 at 7:50 am


Visibility: 10 mi

Pressure: 30.01 "Hg (27.79 "Hg at 667m altitude)

Humidity: 89%

Dew Point: 72 °F

Location of San SalvadorLocation

Past Weather in San Salvador — Graph

°F

San Salvador Temperature Yesterday

Maximum temperature yesterday: 86 °F (at 11:50 am)
Minimum temperature yesterday: 72 °F (at 5:50 am)
Average temperature yesterday: 80 °F

High & Low Weather Summary for the Past Weeks

 TemperatureHumidityPressure
High88 °F (Jul 10, 2:50 pm)100% (Jul 9, 6:50 am)30.09 "Hg (Jul 9, 6:50 am)
Low68 °F (Jul 12, 5:50 am)49% (Jul 19, 1:50 pm)29.83 "Hg (Jul 24, 6:50 am)
Average78 °F81%30.01 "Hg
* Reported Jul 9 6:50 am — Jul 24 6:50 am, San Salvador. Weather by CustomWeather, © 2017

Note: Actual official high and low records may vary slightly from our data, if they occured in-between our weather recording intervals... More about our weather records

Advertising

San Salvador Weather History for the Previous 24 Hours

Scroll right to see more
 ConditionsComfort  
Time TempWeatherWind HumidityBarometerVisibility
6:50 am
Mon, Jul 24
72 °FSunny.5 mph100%29.83 "Hg10 mi
5:50 am72 °FSunny.5 mph94%29.98 "Hg10 mi
11:50 pm
Sun, Jul 23
73 °FPassing clouds.5 mph94%30.04 "HgN/A
10:50 pm73 °FLight rain. Passing clouds.7 mph94%30.01 "HgN/A
9:50 pm75 °FPassing clouds.3 mph89%30.01 "HgN/A
8:50 pm77 °FPassing clouds.9 mph89%30.01 "HgN/A
7:50 pm77 °FPassing clouds.No wind83%30.01 "HgN/A
6:50 pm79 °FThunderstorms. Passing clouds.5 mph79%29.95 "Hg4 mi
5:50 pm82 °FPassing clouds.2 mph84%29.92 "HgN/A
4:50 pm84 °FPassing clouds.5 mph74%29.95 "HgN/A
3:50 pm86 °FPassing clouds.3 mph66%29.95 "HgN/A
2:50 pm86 °FPartly sunny.5 mph59%29.95 "HgN/A
1:50 pm86 °FPartly sunny.6 mph62%29.98 "HgN/A
12:50 pm84 °FScattered clouds.3 mph62%29.98 "HgN/A
11:50 am86 °FScattered clouds.5 mph55%30.01 "HgN/A
10:50 am84 °FPassing clouds.5 mph62%30.01 "HgN/A
9:50 am81 °FSunny.12 mph70%30.01 "Hg10 mi
Weather by CustomWeather, © 2017

See weather overviewHow to use our weather pages